{"data":{"norad_id":58807,"epoch":"2026-05-25T03:32:21.454656Z","epoch_age_seconds":55623,"freshness":"FRESH","line1":"1 58807U 24012W   26145.14747054  .00000752  00000+0  36841-4 0  9996","line2":"2 58807  43.0012  93.0685 0000733 261.5498  98.5271 15.27579516132937","mean_motion":15.27579516,"eccentricity":7.33e-5,"inclination_deg":43.0012,"raan_deg":93.0685,"arg_perigee_deg":261.5498,"mean_anomaly_deg":98.5271,"bstar":3.6841e-5,"rev_number":13293,"period_min":94.26677858123401,"perigee_km":482.54762026308,"apogee_km":483.55347035722,"semimajor_km":6861.1875453102,"source":"CELESTRAK","updated_at":"2026-05-25T13:38:18.752023Z"}}